User: anonymous   Login
Location: Dover
(39.1580°N, 75.5250°W)
Time: 03:19:16
(UTC-04:00)
Language:

Cosmos 1437 Rocket - Orbit

View from above orbital plane
View from above orbital plane
View from above satellite
View from above satellite

Ground track
Ground track

The orbit data is extracted from the following two-line orbital elements,

1 13771U 83003B   17291.33978283 +.00000575 +00000-0 +33207-4 0  9992
2 13771 081.1831 220.9274 0039633 319.0996 040.7256 15.10090074892370
Epoch (UTC): 18 October 2017 08:09:17
Eccentricity: 0.0039633
inclination: 81.1831°
perigee height: 508 km
apogee height: 563 km
right ascension of ascending node: 220.9274°
argument of perigee: 319.0996°
revolutions per day: 15.10090074
mean anomaly at epoch: 40.7256°
orbit number at epoch: 89237

The dashed part of the orbit path shows where the satellite is in the earth's shadow,  

DLR